Hourly Data Report for June 22, 2015

All times are specified in Local Standard Time (LST). Add 1 hour to adjust for Daylight Saving Time where and when it is observed.

KELOWNA UBCO
BRITISH COLUMBIA

49°56'26.700" N
119°24'00.760" W
456.00 m
1123996
71644
VKU

Download Data

Hourly Data (June 2015)
Hourly Data Report for June 22, 2015
TIME Temp Definition
°C
Dew Point Definition
°C
Rel Hum Definition
%
Wind Dir Definition
10's deg

Wind Spd Definition
km/h
Visibility Definition
km
Stn Press Definition
kPa
Hmdx Definition


Wind Chill Definition


Weather Definition


00:00 11.5 5.5 66       96.23     LegendNANA
01:00 10.6 5.6 71       96.26     LegendNANA
02:00 10.4 5.2 70       96.29     LegendNANA
03:00 9.8 5.1 73       96.30     LegendNANA
04:00 9.5 4.7 72       96.34     LegendNANA
05:00 10.9 5.4 69       96.39     LegendNANA
06:00 13.9 5.6 57       96.44     LegendNANA
07:00 16.3 6.4 52       96.45     LegendNANA
08:00 18.5 6.2 45       96.46     LegendNANA
09:00 20.5 6.3 40       96.39     LegendNANA
10:00 22.7 5.6 33       96.34     LegendNANA
11:00 24.3 5.6 30       96.28     LegendNANA
12:00 27.2 3.9 23       96.22 26   LegendNANA
13:00 27.2 1.7 19       96.18 25   LegendNANA
14:00 28.1 1.7 18       96.12 26   LegendNANA
15:00 28.3 2.4 19       96.08 27   LegendNANA
16:00 27.2 3.1 21       96.04 26   LegendNANA
17:00 26.2 5.1 26       96.07 26   LegendNANA
18:00 24.7 5.2 28       96.08     LegendNANA
19:00 24.9 4.2 26       96.15     LegendNANA
20:00 22.6 5.4 33       96.25     LegendNANA
21:00 21.3 7.4 41       96.28     LegendNANA
22:00 19.8 7.5 45       96.29     LegendNANA
23:00 19.5 7.8 47       96.31     LegendNANA

Notes on Data Quality.

Legend

  • E = Estimated
  • M = Missing
  • NA = Not Available
Date modified: